TimeEDT,TemperatureF,Dew PointF,Humidity,Sea Level PressureIn,VisibilityMPH,Wind Direction,Wind SpeedMPH,Gust SpeedMPH,PrecipitationIn,Events,Conditions,WindDirDegrees,DateUTC
12:54 AM,57.9,55.0,90,29.89,10.0,East,3.5,-,N/A,,Partly Cloudy,80,2013-06-07 04:54:00
1:54 AM,57.9,55.0,90,29.88,5.0,East,3.5,-,N/A,,Scattered Clouds,100,2013-06-07 05:54:00
2:54 AM,57.0,55.0,93,29.88,4.0,NE,4.6,-,N/A,,Mostly Cloudy,50,2013-06-07 06:54:00
3:54 AM,55.9,54.0,93,29.86,4.0,ENE,5.8,-,N/A,,Mostly Cloudy,70,2013-06-07 07:54:00
4:54 AM,57.0,54.0,89,29.87,5.0,ENE,5.8,-,N/A,,Mostly Cloudy,60,2013-06-07 08:54:00
5:54 AM,55.9,53.1,90,29.87,6.0,NE,6.9,-,N/A,,Mostly Cloudy,50,2013-06-07 09:54:00
6:54 AM,55.9,53.1,90,29.88,4.0,ENE,4.6,-,N/A,,Mostly Cloudy,70,2013-06-07 10:54:00
7:54 AM,57.9,52.0,81,29.89,6.0,ENE,6.9,-,N/A,,Haze,60,2013-06-07 11:54:00
8:54 AM,60.1,52.0,75,29.89,9.0,ENE,6.9,-,N/A,,Mostly Cloudy,70,2013-06-07 12:54:00
9:54 AM,62.1,52.0,70,29.90,10.0,NE,6.9,-,N/A,,Overcast,50,2013-06-07 13:54:00
10:54 AM,66.0,54.0,65,29.89,10.0,NNE,9.2,-,N/A,,Mostly Cloudy,30,2013-06-07 14:54:00
11:54 AM,68.0,54.0,61,29.89,10.0,Variable,5.8,-,N/A,,Mostly Cloudy,0,2013-06-07 15:54:00
12:54 PM,70.0,54.0,57,29.88,10.0,NE,5.8,-,N/A,,Mostly Cloudy,40,2013-06-07 16:54:00
1:54 PM,70.0,53.1,55,29.87,10.0,ENE,4.6,-,N/A,,Mostly Cloudy,70,2013-06-07 17:54:00
2:54 PM,73.0,54.0,51,29.86,10.0,Variable,6.9,-,N/A,,Mostly Cloudy,0,2013-06-07 18:54:00
3:54 PM,73.0,53.1,49,29.86,10.0,ENE,5.8,-,N/A,,Mostly Cloudy,60,2013-06-07 19:54:00
4:54 PM,72.0,53.1,51,29.86,10.0,North,6.9,-,N/A,,Mostly Cloudy,10,2013-06-07 20:54:00
5:54 PM,71.1,53.1,53,29.86,10.0,NE,8.1,-,N/A,,Mostly Cloudy,50,2013-06-07 21:54:00
6:54 PM,69.1,53.1,57,29.86,10.0,ENE,10.4,-,N/A,,Mostly Cloudy,70,2013-06-07 22:54:00
7:54 PM,68.0,52.0,56,29.88,10.0,NE,12.7,-,N/A,,Mostly Cloudy,40,2013-06-07 23:54:00
8:54 PM,64.0,53.1,67,29.90,10.0,ENE,10.4,-,N/A,,Scattered Clouds,60,2013-06-08 00:54:00
9:54 PM,61.0,52.0,72,29.91,10.0,NE,6.9,-,N/A,,Partly Cloudy,50,2013-06-08 01:54:00
10:54 PM,57.9,51.1,78,29.92,10.0,East,4.6,-,N/A,,Clear,100,2013-06-08 02:54:00
11:54 PM,57.9,51.1,78,29.92,10.0,Calm,Calm,-,N/A,,Clear,0,2013-06-08 03:54:00